User: anonymous   Login
Location: Bismarck
(46.7731°N, 100.8200°W)
Time: 00:02:53
(UTC-06:00)
Language:

Cosmos 1125 Rocket - Orbit

View from above orbital plane
View from above orbital plane
View from above satellite
View from above satellite

Ground track
Ground track

The orbit data is extracted from the following two-line orbital elements,

1 11511U 79078B   18055.63388365 -.00000060  00000-0 -11246-4 0  9997
2 11511  74.0348 211.2908 0015092  30.3685 329.8339 14.36802099 14871
Epoch (UTC): 24 February 2018 15:12:47
Eccentricity: 0.0015092
inclination: 74.0348°
perigee height: 758 km
apogee height: 780 km
right ascension of ascending node: 211.2908°
argument of perigee: 30.3685°
revolutions per day: 14.36802099
mean anomaly at epoch: 329.8339°
orbit number at epoch: 1487

The dashed part of the orbit path shows where the satellite is in the earth's shadow,  

DLR